GW0206 Weather Reports


time (UTC)temp
C
wind
direction
speed
KPH
gust
KPH
rain 1hr
cm
rain 24hr
cm
rain mn
cm
humidity
%
barometer
mb
20220930151541 12 27 4.8 11.3 0.00 0.00 0.00 75 1025.9
20220930151027 11 48 3.2 14.5 0.00 0.00 0.00 75 1026.0
20220930150514 11 68 8.0 14.5 0.00 0.00 0.00 75 1026.1
20220930150107 11 49 6.4 11.3 0.00 0.00 0.00 75 1026.1
20220930145550 11 25 3.2 12.9 0.00 0.00 0.00 77 1026.2
20220930145038 11 52 6.4 11.3 0.00 0.00 0.00 77 1026.2
20220930144526 11 25 4.8 9.7 0.00 0.00 0.00 77 1026.2
20220930144013 11 36 3.2 14.5 0.00 0.00 0.00 77 1026.3
20220930143602 11 56 3.2 14.5 0.00 0.00 0.00 76 1026.3
20220930143053 11 65 8.0 12.9 0.00 0.00 0.00 79 1026.3
20220930142537 10 89 6.4 14.5 0.00 0.00 0.00 79 1026.4
20220930142022 10 47 9.7 14.5 0.00 0.00 0.00 79 1026.6
20220930141510 10 28 6.4 12.9 0.00 0.00 0.00 81 1026.6
20220930141105 10 57 6.4 12.9 0.00 0.00 0.00 82 1026.6
20220930140548 10 47 4.8 16.1 0.00 0.00 0.00 82 1026.6
20220930140036 9 53 8.0 16.1 0.00 0.00 0.00 82 1026.5
20220930135524 9 31 8.0 14.5 0.00 0.00 0.00 84 1026.6
20220930134609 8 75 6.4 16.1 0.00 0.00 0.00 86 1026.4
20220930134050 8 64 6.4 12.9 0.00 0.00 0.00 87 1026.4
20220930133537 8 70 3.2 9.7 0.00 0.00 0.00 88 1026.4
20220930133025 7 74 6.4 12.9 0.00 0.00 0.00 89 1026.4
20220930132513 7 86 4.8 12.9 0.00 0.00 0.00 89 1026.3
20220930132001 7 60 6.4 14.5 0.00 0.00 0.00 90 1026.4
20220930131552 7 56 8.0 16.1 0.00 0.00 0.00 91 1026.5
20220930131039 6 74 4.8 12.9 0.00 0.00 0.00 93 1026.5
20220930130527 6 58 4.8 12.9 0.00 0.00 0.00 93 1026.6
20220930130015 6 53 4.8 11.3 0.00 0.00 0.00 93 1026.6
20220930125603 6 81 4.8 9.7 0.00 0.00 0.00 94 1026.6
20220930125050 6 61 4.8 12.9 0.00 0.00 0.00 94 1026.6
20220930124601 5 70 3.2 9.7 0.00 0.00 0.00 94 1026.4
20220930124024 5 73 4.8 11.3 0.00 0.00 0.00 94 1026.3
20220930123515 5 32 4.8 9.7 0.00 0.00 0.00 94 1026.2
20220930123101 5 44 4.8 11.3 0.00 0.00 0.00 94 1026.2
20220930122549 5 44 4.8 11.3 0.00 0.00 0.00 94 1026.3
20220930122039 5 56 3.2 8.0 0.00 0.00 0.00 94 1026.1
20220930121524 5 45 3.2 8.0 0.00 0.00 0.00 94 1026.1
20220930121015 5 49 4.8 8.0 0.00 0.00 0.00 94 1026.3
20220930120604 5 74 3.2 9.7 0.00 0.00 0.00 94 1026.3
20220930120053 5 53 4.8 9.7 0.00 0.00 0.00 94 1026.2
20220930115539 5 58 4.8 11.3 0.00 0.00 0.00 94 1026.2
20220930115027 5 47 4.8 11.3 0.00 0.00 0.00 94 1026.3
20220930114515 5 47 6.4 9.7 0.00 0.00 0.00 94 1026.3
20220930114006 5 59 4.8 8.0 0.00 0.00 0.00 94 1026.2
20220930113554 5 72 4.8 11.3 0.00 0.00 0.00 94 1026.3
20220930113041 5 65 4.8 12.9 0.00 0.00 0.00 94 1026.2
20220930112529 5 83 6.4 12.9 0.00 0.00 0.00 94 1026.2
20220930112017 5 68 4.8 11.3 0.00 0.00 0.00 94 1026.2
20220930111509 5 79 4.8 11.3 0.00 0.00 0.00 94 1026.3
20220930111055 5 54 4.8 9.7 0.00 0.00 0.00 94 1026.2
20220930110541 5 49 4.8 9.7 0.00 0.00 0.00 94 1026.2
20220930110031 5 66 4.8 12.9 0.00 0.00 0.00 94 1026.3
20220930105519 5 74 6.4 12.9 0.00 0.00 0.00 94 1026.2
20220930105008 5 43 6.4 12.9 0.00 0.00 0.00 94 1026.3
20220930104603 5 49 4.8 11.3 0.00 0.00 0.00 94 1026.3
20220930104054 5 54 4.8 9.7 0.00 0.00 0.00 94 1026.3
20220930103532 5 58 4.8 8.0 0.00 0.00 0.00 94 1026.3
20220930103020 5 93 3.2 8.0 0.00 0.00 0.00 94 1026.3
20220930102508 5 50 4.8 8.0 0.00 0.00 0.00 94 1026.2
20220930102059 5 61 4.8 6.4 0.00 0.00 0.00 94 1026.3
20220930101646 5 59 3.2 6.4 0.00 0.00 0.00 94 1026.3
20220930101038 5 39 3.2 6.4 0.00 0.00 0.00 94 1026.3
20220930100523 5 67 3.2 8.0 0.00 0.00 0.00 94 1026.3
20220930100010 5 74 4.8 11.3 0.00 0.00 0.00 94 1026.3
20220930095614 5 94 4.8 11.3 0.00 0.00 0.00 94 1026.2
20220930095050 5 61 4.8 8.0 0.00 0.00 0.00 94 1026.1
20220930094547 5 66 4.8 8.0 0.00 0.00 0.00 93 1026.2
20220930094026 5 83 3.2 9.7 0.00 0.00 0.00 93 1026.2
20220930093514 5 76 4.8 9.7 0.00 0.00 0.00 93 1026.3
20220930093006 5 89 4.8 9.7 0.00 0.00 0.00 93 1026.2
20220930092553 5 52 4.8 9.7 0.00 0.00 0.00 93 1026.3
20220930092041 5 41 4.8 9.7 0.00 0.00 0.00 93 1026.2
20220930091542 5 63 4.8 8.0 0.00 0.00 0.00 93 1026.0
20220930091017 5 62 3.2 8.0 0.00 0.00 0.00 93 1026.0
20220930090507 5 44 4.8 12.9 0.00 0.00 0.00 93 1026.0
20220930090101 5 47 4.8 12.9 0.00 0.00 0.00 93 1026.0
20220930085546 5 52 3.2 11.3 0.00 0.00 0.00 94 1026.1
20220930085034 5 55 6.4 9.7 0.00 0.00 0.00 93 1026.0
20220930084530 5 98 3.2 11.3 0.00 0.00 0.00 93 1025.9
20220930084011 5 41 3.2 8.0 0.00 0.00 0.00 93 1026.0
20220930083601 5 56 1.6 8.0 0.00 0.00 0.00 93 1025.9
20220930083102 5 24 3.2 6.4 0.00 0.00 0.00 93 1025.9
20220930082539 5 38 1.6 6.4 0.00 0.00 0.00 93 1025.9
20220930082031 5 45 1.6 6.4 0.00 0.00 0.00 93 1025.9
20220930081523 5 58 1.6 6.4 0.00 0.00 0.00 93 1025.9
20220930081004 5 16 1.6 6.4 0.00 0.00 0.00 93 1025.9
20220930080558 6 35 1.6 8.0 0.00 0.00 0.00 93 1025.9
20220930080044 6 30 3.2 8.0 0.00 0.00 0.00 92 1025.9
20220930075533 6 38 3.2 8.0 0.00 0.00 0.00 92 1025.9
20220930075022 6 36 1.6 8.0 0.00 0.00 0.00 92 1026.0
20220930074508 6 18 3.2 9.7 0.00 0.00 0.00 93 1026.0
20220930074102 6 54 3.2 9.7 0.00 0.00 0.00 93 1026.0
20220930073548 6 59 3.2 9.7 0.00 0.00 0.00 93 1026.0
20220930073047 6 43 3.2 9.7 0.00 0.00 0.00 93 1026.1
20220930072526 6 37 1.6 4.8 0.00 0.00 0.00 92 1026.2
20220930072018 6 38 1.6 4.8 0.00 0.00 0.00 92 1026.2
20220930071601 6 57 1.6 6.4 0.00 0.00 0.00 92 1026.3
20220930071050 6 37 1.6 6.4 0.00 0.00 0.00 92 1026.2
20220930070537 6 19 3.2 6.4 0.00 0.00 0.00 92 1026.3
20220930070033 6 43 1.6 6.4 0.00 0.00 0.00 92 1026.3
20220930065514 6 66 1.6 6.4 0.00 0.00 0.00 92 1026.3
20220930065002 6 44 1.6 11.3 0.00 0.00 0.00 92 1026.4
20220930064556 6 22 3.2 11.3 0.00 0.00 0.00 92 1026.4
20220930064041 6 42 1.6 8.0 0.00 0.00 0.00 92 1026.3
20220930063528 6 35 3.2 9.7 0.00 0.00 0.00 92 1026.5
20220930063030 6 61 3.2 9.7 0.00 0.00 0.00 92 1026.6
20220930062504 6 54 3.2 9.7 0.00 0.00 0.00 92 1026.4
20220930062053 6 52 4.8 11.3 0.00 0.00 0.00 92 1026.4
20220930061543 6 81 4.8 9.7 0.00 0.00 0.00 91 1026.5
20220930061031 6 52 3.2 8.0 0.00 0.00 0.00 91 1026.6
20220930060516 6 61 3.2 8.0 0.00 0.00 0.00 91 1026.7
20220930060007 6 54 3.2 6.4 0.00 0.00 0.00 91 1026.7
20220930055602 6 38 1.6 8.0 0.00 0.00 0.00 91 1026.8
20220930055048 6 51 3.2 11.3 0.00 0.00 0.00 91 1026.8
20220930054544 6 62 4.8 11.3 0.00 0.00 0.00 90 1026.9
20220930054024 6 54 6.4 11.3 0.00 0.00 0.00 91 1027.0
20220930053512 6 27 4.8 11.3 0.00 0.00 0.00 91 1027.0
20220930053117 6 67 6.4 11.3 0.00 0.00 0.00 90 1027.1
20220930052548 6 60 4.8 12.9 0.00 0.00 0.00 90 1027.1
20220930052035 6 82 6.4 11.3 0.00 0.00 0.00 90 1027.2
20220930051524 6 61 6.4 12.9 0.00 0.00 0.00 90 1027.2
20220930051012 6 58 6.4 12.9 0.00 0.00 0.00 90 1027.4
20220930050603 7 34 8.0 11.3 0.00 0.00 0.00 90 1027.5
20220930050050 7 47 6.4 12.9 0.00 0.00 0.00 90 1027.5
20220930045539 7 60 6.4 12.9 0.00 0.00 0.00 90 1027.6
20220930045026 7 62 6.4 11.3 0.00 0.00 0.00 90 1027.5
20220930044515 7 36 6.4 11.3 0.00 0.00 0.00 90 1027.5
20220930044002 7 66 6.4 9.7 0.00 0.00 0.00 90 1027.6
20220930043552 7 45 4.8 11.3 0.00 0.00 0.00 90 1027.6
20220930043040 7 37 3.2 11.3 0.00 0.00 0.00 90 1027.7
20220930042530 7 37 3.2 8.0 0.00 0.00 0.00 90 1027.7
20220930042017 7 42 3.2 8.0 0.00 0.00 0.00 90 1027.7
20220930041514 7 72 3.2 8.0 0.00 0.00 0.00 90 1027.8
20220930041055 7 76 3.2 9.7 0.00 0.00 0.00 90 1027.9
20220930040554 7 87 3.2 9.7 0.00 0.00 0.00 90 1027.9
20220930040039 7 31 3.2 11.3 0.00 0.00 0.00 90 1027.9
20220930035521 7 62 4.8 8.0 0.00 0.00 0.00 90 1028.0
20220930035007 7 23 3.2 8.0 0.00 0.00 0.00 90 1028.0
20220930034558 7 53 4.8 8.0 0.00 0.00 0.00 90 1028.1
20220930034040 7 14 3.2 6.4 0.00 0.00 0.00 89 1028.1
20220930033530 7 30 3.2 9.7 0.00 0.00 0.00 89 1028.1
20220930033015 7 32 3.2 9.7 0.00 0.00 0.00 89 1028.1
20220930032603 7 29 3.2 9.7 0.00 0.00 0.00 89 1028.1
20220930032050 7 56 3.2 8.0 0.00 0.00 0.00 89 1028.2
20220930031548 7 62 3.2 6.4 0.00 0.00 0.00 89 1028.2
20220930031028 7 23 1.6 6.4 0.00 0.00 0.00 89 1028.2
20220930030517 7 36 1.6 6.4 0.00 0.00 0.00 89 1028.2
20220930030002 7 44 1.6 4.8 0.00 0.00 0.00 89 1028.1
20220930025552 7 54 1.6 8.0 0.00 0.00 0.00 89 1028.1
20220930025041 7 94 3.2 8.0 0.00 0.00 0.00 89 1028.1
20220930024542 7 35 3.2 6.4 0.00 0.00 0.00 89 1028.2
20220930024020 7 45 1.6 6.4 0.00 0.00 0.00 89 1028.1
20220930023503 7 29 3.2 6.4 0.00 0.00 0.00 89 1028.1
20220930023058 7 34 3.2 6.4 0.00 0.00 0.00 89 1028.1
20220930022544 7 29 1.6 4.8 0.00 0.00 0.00 89 1028.1
20220930022032 7 45 1.6 4.8 0.00 0.00 0.00 89 1028.2
20220930021524 7 53 1.6 6.4 0.00 0.00 0.00 89 1028.2
20220930021006 8 34 3.2 6.4 0.00 0.00 0.00 88 1028.1
20220930020555 8 32 3.2 6.4 0.00 0.00 0.00 88 1028.1
20220930020046 8 29 3.2 8.0 0.00 0.00 0.00 88 1028.2
20220930015531 8 19 3.2 8.0 0.00 0.00 0.00 87 1028.3
20220930015019 8 14 3.2 6.4 0.00 0.00 0.00 87 1028.3
20220930014509 8 354 1.6 6.4 0.00 0.00 0.00 87 1028.4
20220930014059 8 29 3.2 6.4 0.00 0.00 0.00 87 1028.4
20220930013547 8 28 3.2 4.8 0.00 0.00 0.00 86 1028.3
20220930013035 8 31 1.6 6.4 0.00 0.00 0.00 86 1028.3
20220930012523 8 29 3.2 6.4 0.00 0.00 0.00 85 1028.3
20220930012011 8 27 1.6 6.4 0.00 0.00 0.00 85 1028.4
20220930011601 8 12 3.2 6.4 0.00 0.00 0.00 85 1028.4
20220930011049 8 22 1.6 4.8 0.00 0.00 0.00 85 1028.4
20220930010538 8 22 1.6 4.8 0.00 0.00 0.00 85 1028.5
20220930010026 8 34 1.6 4.8 0.00 0.00 0.00 85 1028.5
20220930005515 8 34 1.6 4.8 0.00 0.00 0.00 85 1028.5
20220930005002 8 41 1.6 3.2 0.00 0.00 0.00 85 1028.5
20220930004553 8 32 1.6 4.8 0.00 0.00 0.00 85 1028.6
20220930004040 8 54 1.6 4.8 0.00 0.00 0.00 84 1028.6
20220930003528 8 37 0.0 4.8 0.00 0.00 0.00 84 1028.6
20220930003019 8 47 0.0 1.6 0.00 0.00 0.00 83 1028.4
20220930002504 9 47 0.0 1.6 0.00 0.00 0.00 82 1028.6
20220930002054 9 47 0.0 1.6 0.00 0.00 0.00 82 1028.6
20220930001542 10 47 0.0 1.6 0.00 0.00 0.00 81 1028.6
20220930001029 10 47 0.0 1.6 0.00 0.00 0.00 80 1028.6
20220930000522 10 47 0.0 1.6 0.00 0.00 0.00 80 1028.7
20220930000025 10 47 0.0 3.2 0.00 0.00 0.00 79 1028.7
20220929235556 10 47 0.0 3.2 0.00 0.00 0.00 78 1028.7
20220929235046 10 48 0.0 6.4 0.00 0.00 0.00 77 1028.5
20220929234540 11 58 3.2 6.4 0.00 0.00 0.00 76 1028.6
20220929234023 11 80 3.2 12.9 0.00 0.00 0.00 76 1028.6
20220929233510 11 56 6.4 12.9 0.00 0.00 0.00 75 1028.6
20220929233135 11 39 6.4 9.7 0.00 0.00 0.00 76 1028.6
20220929232553 11 56 3.2 8.0 0.00 0.00 0.00 77 1028.7
20220929232038 11 9 3.2 8.0 0.00 0.00 0.00 75 1028.7
20220929231539 11 35 3.2 11.3 0.00 0.00 0.00 75 1028.7
20220929231018 11 35 4.8 11.3 0.00 0.00 0.00 74 1028.8
20220929230510 11 16 3.2 11.3 0.00 0.00 0.00 76 1028.8
20220929230055 11 41 4.8 11.3 0.00 0.00 0.00 75 1028.8
20220929225546 11 31 4.8 9.7 0.00 0.00 0.00 75 1028.8
20220929225032 11 43 3.2 11.3 0.00 0.00 0.00 76 1028.9
20220929224523 12 38 3.2 9.7 0.00 0.00 0.00 75 1028.9
20220929224007 12 41 3.2 8.0 0.00 0.00 0.00 73 1028.9
20220929223557 12 21 1.6 8.0 0.00 0.00 0.00 73 1029.0
20220929223046 12 111 3.2 8.0 0.00 0.00 0.00 73 1029.1
20220929222533 12 30 1.6 12.9 0.00 0.00 0.00 72 1029.1
20220929222021 12 20 4.8 14.5 0.00 0.00 0.00 73 1029.2
20220929221509 12 14 4.8 14.5 0.00 0.00 0.00 72 1029.2
20220929221102 12 54 1.6 12.9 0.00 0.00 0.00 72 1029.2
20220929220546 12 71 8.0 12.9 0.00 0.00 0.00 72 1029.3
20220929220038 12 43 4.8 12.9 0.00 0.00 0.00 73 1029.3
20220929215524 12 56 3.2 11.3 0.00 0.00 0.00 72 1029.3
20220929215016 12 37 1.6 8.0 0.00 0.00 0.00 73 1029.3
20220929214702 12 37 4.8 11.3 0.00 0.00 0.00 72 1029.3
20220929214052 12 54 4.8 11.3 0.00 0.00 0.00 72 1029.3
20220929213539 12 9 4.8 9.7 0.00 0.00 0.00 72 1029.3
20220929213024 12 52 3.2 11.3 0.00 0.00 0.00 71 1029.5
20220929212516 12 48 4.8 14.5 0.00 0.00 0.00 71 1029.5
20220929212102 12 39 3.2 14.5 0.00 0.00 0.00 71 1029.5
20220929211551 12 30 6.4 12.9 0.00 0.00 0.00 71 1029.5
20220929211041 12 25 6.4 11.3 0.00 0.00 0.00 71 1029.5
20220929210529 13 17 6.4 14.5 0.00 0.00 0.00 71 1029.5
20220929210019 13 54 8.0 14.5 0.00 0.00 0.00 71 1029.5
20220929205502 13 33 4.8 12.9 0.00 0.00 0.00 71 1029.5
20220929205054 13 54 3.2 12.9 0.00 0.00 0.00 70 1029.5
20220929204543 13 16 3.2 9.7 0.00 0.00 0.00 70 1029.6
20220929204031 13 13 6.4 11.3 0.00 0.00 0.00 69 1029.6
20220929203520 13 20 8.0 11.3 0.00 0.00 0.00 72 1029.5
20220929203006 12 19 6.4 12.9 0.00 0.00 0.00 71 1029.5
20220929202557 12 45 8.0 16.1 0.00 0.00 0.00 71 1029.5
20220929202044 12 16 8.0 16.1 0.00 0.00 0.00 72 1029.5
20220929201534 12 18 6.4 14.5 0.00 0.00 0.00 71 1029.6
20220929201017 12 39 4.8 12.9 0.00 0.00 0.00 71 1029.6
20220929200507 12 60 6.4 12.9 0.00 0.00 0.00 72 1029.7
20220929200056 12 12 4.8 12.9 0.00 0.03 0.00 73 1029.7
20220929195546 12 31 4.8 12.9 0.00 0.03 0.00 73 1029.8
20220929195031 12 19 3.2 11.3 0.00 0.03 0.00 72 1029.8
20220929194525 12 360 3.2 11.3 0.00 0.03 0.00 73 1029.9
20220929194007 12 43 4.8 11.3 0.00 0.03 0.00 75 1029.9
20220929193601 12 18 4.8 16.1 0.00 0.03 0.00 75 1029.9
20220929193055 12 83 8.0 16.1 0.00 0.03 0.00 73 1029.8
20220929192536 12 51 6.4 12.9 0.00 0.03 0.00 74 1030.0
20220929192023 12 47 6.4 11.3 0.00 0.03 0.00 75 1030.0
20220929191520 12 12 4.8 11.3 0.00 0.03 0.00 73 1030.0
20220929191104 12 360 4.8 11.3 0.00 0.03 0.00 74 1030.1
20220929190550 13 7 4.8 11.3 0.00 0.03 0.00 73 1030.3
20220929190045 13 83 4.8 11.3 0.00 0.08 0.00 72 1030.3
20220929185526 13 336 3.2 12.9 0.00 0.08 0.00 74 1030.3
20220929185015 13 13 4.8 12.9 0.00 0.08 0.00 73 1030.3
20220929184606 12 24 6.4 16.1 0.00 0.08 0.00 72 1030.4
20220929184055 12 33 6.4 16.1 0.00 0.08 0.00 72 1030.5
20220929183539 12 47 4.8 14.5 0.00 0.08 0.00 73 1030.6
20220929183027 12 18 6.4 14.5 0.00 0.08 0.00 71 1030.6
20220929182526 12 47 6.4 16.1 0.00 0.08 0.00 72 1030.7
20220929182006 12 70 8.0 16.1 0.00 0.08 0.00 72 1030.8
20220929181602 12 79 4.8 14.5 0.00 0.08 0.00 71 1030.9
20220929181042 12 41 6.4 14.5 0.00 0.08 0.00 73 1031.0
20220929180527 12 10 4.8 12.9 0.00 0.08 0.00 73 1031.1
20220929180015 12 33 4.8 11.3 0.00 0.08 0.00 73 1031.2
20220929175502 12 27 4.8 17.7 0.00 0.08 0.00 71 1031.4
20220929175054 12 62 8.0 17.7 0.00 0.08 0.00 72 1031.3
20220929174540 12 94 8.0 14.5 0.00 0.08 0.00 71 1031.4
20220929174032 12 29 4.8 12.9 0.00 0.08 0.00 72 1031.5
20220929173517 12 73 6.4 16.1 0.00 0.08 0.00 73 1031.5
20220929173010 12 52 8.0 16.1 0.00 0.08 0.00 74 1031.6
20220929172559 12 41 4.8 16.1 0.00 0.08 0.00 74 1031.6
20220929172043 12 52 9.7 16.1 0.00 0.08 0.00 74 1031.6
20220929171531 12 75 6.4 14.5 0.00 0.08 0.00 73 1031.7
20220929171020 12 29 8.0 14.5 0.00 0.08 0.00 74 1031.6
20220929170508 12 23 4.8 14.5 0.00 0.08 0.00 75 1031.7
20220929170105 12 16 6.4 14.5 0.00 0.10 0.00 75 1031.7
20220929165549 12 43 4.8 16.1 0.00 0.10 0.00 74 1031.8
20220929165037 12 8 6.4 16.1 0.00 0.10 0.00 74 1032.0
20220929164526 12 28 6.4 12.9 0.00 0.10 0.00 73 1031.9
20220929164013 12 24 6.4 12.9 0.00 0.10 0.00 75 1032.0
20220929163600 12 27 6.4 12.9 0.00 0.10 0.00 75 1032.0
20220929163054 12 346 4.8 11.3 0.00 0.10 0.00 76 1032.0
20220929162534 12 4 4.8 11.3 0.00 0.10 0.00 78 1032.0
20220929162023 12 29 4.8 14.5 0.00 0.10 0.00 76 1032.0
20220929161527 12 46 6.4 14.5 0.00 0.10 0.00 76 1032.1
20220929161102 12 27 3.2 9.7 0.00 0.10 0.00 77 1032.1
20220929160550 11 6 4.8 12.9 0.00 0.10 0.00 77 1032.1
20220929160038 11 11 3.2 14.5 0.00 0.10 0.00 77 1032.1
20220929155526 11 11 8.0 20.9 0.00 0.10 0.00 75 1032.2
20220929155016 11 41 4.8 20.9 0.00 0.10 0.00 76 1032.2
20220929154504 11 28 9.7 19.3 0.00 0.10 0.00 78 1032.2
20220929154056 11 6 6.4 16.1 0.00 0.10 0.00 79 1032.2
20220929153546 12 97 6.4 16.1 0.00 0.10 0.00 77 1032.2
20220929153032 12 75 4.8 11.3 0.00 0.10 0.00 80 1032.1
20220929152518 12 73 3.2 16.1 0.00 0.10 0.00 83 1032.0
20220929152006 12 43 1.6 16.1 0.00 0.10 0.00 82 1032.0